owner,sensor,date,latitude,longitude,vertical_datum,wind_speed,wind_to_direction,wind_speed_of_gust,qcFlag 
TABS,ioos:station:wmo:42046:1,2003-02-01T00:09:00Z,27.8903,-94.0367,4.0,1.993313824,353.3739303,4.13,'11111222,11111222,11111222' 
TABS,ioos:station:wmo:42046:1,2003-02-01T00:39:00Z,27.8903,-94.0367,4.0,1.645964763,332.5007151,3.18,'11111222,11111222,11111222' 
TABS,ioos:station:wmo:42046:1,2003-02-01T01:09:00Z,27.8903,-94.0367,4.0,0.940212742,293.8386844,2.87,'11111222,11111222,11111222' 
TABS,ioos:station:wmo:42046:1,2003-02-01T01:39:00Z,27.8903,-94.0367,4.0,0.830060239,291.9295365,2.26,'11111222,11111222,11111222' 
TABS,ioos:station:wmo:42046:1,2003-02-01T02:09:00Z,27.8903,-94.0367,4.0,1.104943437,295.1734657,2.88,'11111222,11111222,11111222' 
TABS,ioos:station:wmo:42046:1,2003-02-01T02:39:00Z,27.8903,-94.0367,4.0,0.774725758,293.5869754,2.38,'11111222,11111222,11111222' 
TABS,ioos:station:wmo:42046:1,2003-02-01T03:09:00Z,27.8903,-94.0367,4.0,2.374278838,325.6404896,4.01,'11111222,11111222,11111222' 
TABS,ioos:station:wmo:42046:1,2003-02-01T03:39:00Z,27.8903,-94.0367,4.0,2.849298159,324.8595879,4.66,'11111222,11111222,11111222' 
TABS,ioos:station:wmo:42046:1,2003-02-01T04:09:00Z,27.8903,-94.0367,4.0,3.178443015,340.7097884,4.65,'11111222,11111222,11111222' 
TABS,ioos:station:wmo:42046:1,2003-02-01T04:39:00Z,27.8903,-94.0367,4.0,3.26847059,351.2003371,5.22,'11111222,11111222,11111222' 
TABS,ioos:station:wmo:42046:1,2003-02-01T05:09:00Z,27.8903,-94.0367,4.0,3.165217212,5.620310227,6.55,'11111222,11111222,11111222' 
TABS,ioos:station:wmo:42046:1,2003-02-01T05:39:00Z,27.8903,-94.0367,4.0,3.191895988,1.974718934,4.94,'11111222,11111222,11111222' 
TABS,ioos:station:wmo:42046:1,2003-02-01T06:39:00Z,27.8903,-94.0367,4.0,3.366556104,3.576115553,5.27,'11111222,11111222,11111222' 
TABS,ioos:station:wmo:42046:1,2003-02-01T07:09:00Z,27.8903,-94.0367,4.0,3.45775939,16.81009418,5.71,'11111222,11111222,11111222' 
TABS,ioos:station:wmo:42046:1,2003-02-01T07:39:00Z,27.8903,-94.0367,4.0,3.332401536,16.20493702,4.9,'11111222,11111222,11111222' 
TABS,ioos:station:wmo:42046:1,2003-02-01T08:09:00Z,27.8903,-94.0367,4.0,2.393700065,21.31221337,4.33,'11111222,11111222,11111222' 
TABS,ioos:station:wmo:42046:1,2003-02-01T08:39:00Z,27.8903,-94.0367,4.0,2.889030979,26.29870166,5.3,'11111222,11111222,11111222' 
TABS,ioos:station:wmo:42046:1,2003-02-01T09:39:00Z,27.8903,-94.0367,4.0,2.383463866,46.18963046,4.29,'11111222,11111222,11111222' 
TABS,ioos:station:wmo:42046:1,2003-02-01T10:09:00Z,27.8903,-94.0367,4.0,2.593318338,56.7998085,4.66,'11111222,11111222,11111222' 
TABS,ioos:station:wmo:42046:1,2003-02-01T10:39:00Z,27.8903,-94.0367,4.0,2.415056935,62.90408995,3.92,'11111222,11111222,11111222' 
TABS,ioos:station:wmo:42046:1,2003-02-01T11:09:00Z,27.8903,-94.0367,4.0,2.999233235,67.45324178,5.0,'11111222,11111222,11111222' 
TABS,ioos:station:wmo:42046:1,2003-02-01T11:39:00Z,27.8903,-94.0367,4.0,2.723563842,63.15234775,4.71,'11111222,11111222,11111222' 
TABS,ioos:station:wmo:42046:1,2003-02-01T12:09:00Z,27.8903,-94.0367,4.0,2.881336495,72.63373258,5.04,'11111222,11111222,11111222' 
TABS,ioos:station:wmo:42046:1,2003-02-01T12:39:00Z,27.8903,-94.0367,4.0,2.96664794,76.94708906,4.9,'11111222,11111222,11111222' 
TABS,ioos:station:wmo:42046:1,2003-02-01T13:09:00Z,27.8903,-94.0367,4.0,2.493692042,102.9777859,4.45,'11111222,11111222,11111222' 
TABS,ioos:station:wmo:42046:1,2003-02-01T13:39:00Z,27.8903,-94.0367,4.0,2.933837078,92.93108657,5.44,'11111222,11111222,11111222' 
TABS,ioos:station:wmo:42046:1,2003-02-01T14:09:00Z,27.8903,-94.0367,4.0,3.550352095,90.80734849,7.04,'11111222,11111222,11111222' 
TABS,ioos:station:wmo:42046:1,2003-02-01T14:39:00Z,27.8903,-94.0367,4.0,3.196060075,95.74667669,5.98,'11111222,11111222,11111222' 
TABS,ioos:station:wmo:42046:1,2003-02-01T15:09:00Z,27.8903,-94.0367,4.0,3.751226466,94.4342595,5.86,'11111222,11111222,11111222' 
TABS,ioos:station:wmo:42046:1,2003-02-01T15:39:00Z,27.8903,-94.0367,4.0,3.370830758,94.59466351,5.39,'11111222,11111222,11111222' 
TABS,ioos:station:wmo:42046:1,2003-02-01T16:09:00Z,27.8903,-94.0367,4.0,3.080162333,107.9647364,4.89,'11111222,11111222,11111222' 
TABS,ioos:station:wmo:42046:1,2003-02-01T16:39:00Z,27.8903,-94.0367,4.0,3.112699793,105.4653772,5.56,'11111222,11111222,11111222' 
TABS,ioos:station:wmo:42046:1,2003-02-01T17:09:00Z,27.8903,-94.0367,4.0,3.06320094,106.3054784,5.5,'11111222,11111222,11111222' 
TABS,ioos:station:wmo:42046:1,2003-02-01T17:39:00Z,27.8903,-94.0367,4.0,3.017962889,105.3720599,4.88,'11111222,11111222,11111222' 
TABS,ioos:station:wmo:42046:1,2003-02-01T18:09:00Z,27.8903,-94.0367,4.0,2.385497852,99.89706974,4.25,'11111222,11111222,11111222' 
TABS,ioos:station:wmo:42046:1,2003-02-01T18:39:00Z,27.8903,-94.0367,4.0,2.08434642,107.3052101,4.83,'11111222,11111222,11111222' 
TABS,ioos:station:wmo:42046:1,2003-02-01T19:09:00Z,27.8903,-94.0367,4.0,2.738904891,99.66906697,4.69,'11111222,11111222,11111222' 
TABS,ioos:station:wmo:42046:1,2003-02-01T19:39:00Z,27.8903,-94.0367,4.0,3.381789467,99.01706624,5.55,'11111222,11111222,11111222' 
TABS,ioos:station:wmo:42046:1,2003-02-01T20:09:00Z,27.8903,-94.0367,4.0,2.740456166,113.6656579,5.4,'11111222,11111222,11111222' 
TABS,ioos:station:wmo:42046:1,2003-02-01T20:39:00Z,27.8903,-94.0367,4.0,3.063151971,125.2988321,5.43,'11111222,11111222,11111222' 
TABS,ioos:station:wmo:42046:1,2003-02-01T21:09:00Z,27.8903,-94.0367,4.0,3.317242831,136.3438905,5.7,'11111222,11111222,11111222' 
TABS,ioos:station:wmo:42046:1,2003-02-01T21:39:00Z,27.8903,-94.0367,4.0,2.960675599,153.9545031,5.3,'11111222,11111222,11111222' 
TABS,ioos:station:wmo:42046:1,2003-02-01T22:09:00Z,27.8903,-94.0367,4.0,2.817747327,148.7924198,4.91,'11111222,11111222,11111222' 
TABS,ioos:station:wmo:42046:1,2003-02-01T22:39:00Z,27.8903,-94.0367,4.0,2.884666359,164.5186636,5.66,'11111222,11111222,11111222' 
TABS,ioos:station:wmo:42046:1,2003-02-01T23:09:00Z,27.8903,-94.0367,4.0,2.553918558,156.9489634,5.55,'11111222,11111222,11111222' 
TABS,ioos:station:wmo:42046:1,2003-02-01T23:39:00Z,27.8903,-94.0367,4.0,3.162609682,158.8717,5.78,'11111222,11111222,11111222' 
TABS,ioos:station:wmo:42046:1,2003-02-02T00:09:00Z,27.8903,-94.0367,4.0,3.891015292,152.7766798,5.91,'11111222,11111222,11111222' 
TABS,ioos:station:wmo:42046:1,2003-02-02T00:39:00Z,27.8903,-94.0367,4.0,3.796379855,156.0684251,6.05,'11111222,11111222,11111222' 
TABS,ioos:station:wmo:42046:1,2003-02-02T01:09:00Z,27.8903,-94.0367,4.0,3.500757061,162.0311127,6.0,'11111222,11111222,11111222' 
TABS,ioos:station:wmo:42046:1,2003-02-02T01:39:00Z,27.8903,-94.0367,4.0,3.333976605,168.757711,5.65,'11111222,11111222,11111222' 
TABS,ioos:station:wmo:42046:1,2003-02-02T02:09:00Z,27.8903,-94.0367,4.0,3.182514729,166.9246599,5.06,'11111222,11111222,11111222' 
TABS,ioos:station:wmo:42046:1,2003-02-02T02:39:00Z,27.8903,-94.0367,4.0,3.164127052,172.9201309,5.3,'11111222,11111222,11111222' 
TABS,ioos:station:wmo:42046:1,2003-02-02T03:09:00Z,27.8903,-94.0367,4.0,4.081984811,172.8229814,6.59,'11111222,11111222,11111222' 
TABS,ioos:station:wmo:42046:1,2003-02-02T03:39:00Z,27.8903,-94.0367,4.0,4.24471436,177.2995874,6.26,'11111222,11111222,11111222' 
TABS,ioos:station:wmo:42046:1,2003-02-02T04:09:00Z,27.8903,-94.0367,4.0,4.132408499,184.4414413,6.88,'11111222,11111222,11111222' 
TABS,ioos:station:wmo:42046:1,2003-02-02T04:39:00Z,27.8903,-94.0367,4.0,4.199869046,186.8375498,6.4,'11111222,11111222,11111222' 
TABS,ioos:station:wmo:42046:1,2003-02-02T05:09:00Z,27.8903,-94.0367,4.0,3.595469371,189.1219369,5.78,'11111222,11111222,11111222' 
TABS,ioos:station:wmo:42046:1,2003-02-02T05:39:00Z,27.8903,-94.0367,4.0,4.279310692,186.7100316,6.51,'11111222,11111222,11111222' 
TABS,ioos:station:wmo:42046:1,2003-02-02T06:09:00Z,27.8903,-94.0367,4.0,4.392413915,184.3088653,6.17,'11111222,11111222,11111222' 
TABS,ioos:station:wmo:42046:1,2003-02-02T06:39:00Z,27.8903,-94.0367,4.0,5.155627993,189.1519186,7.2,'11111222,11111222,11111222' 
TABS,ioos:station:wmo:42046:1,2003-02-02T07:09:00Z,27.8903,-94.0367,4.0,5.038501761,191.9122673,7.62,'11111222,11111222,11111222' 
TABS,ioos:station:wmo:42046:1,2003-02-02T07:39:00Z,27.8903,-94.0367,4.0,5.6209074,183.5701781,8.13,'11111222,11111222,11111222' 
TABS,ioos:station:wmo:42046:1,2003-02-02T08:09:00Z,27.8903,-94.0367,4.0,5.220622568,187.1524354,8.68,'11111222,11111222,11111222' 
TABS,ioos:station:wmo:42046:1,2003-02-02T08:39:00Z,27.8903,-94.0367,4.0,5.070907217,185.2048568,8.1,'11111222,11111222,11111222' 
TABS,ioos:station:wmo:42046:1,2003-02-02T09:09:00Z,27.8903,-94.0367,4.0,5.07010848,183.6188315,7.39,'11111222,11111222,11111222' 
TABS,ioos:station:wmo:42046:1,2003-02-02T09:39:00Z,27.8903,-94.0367,4.0,4.741307836,189.2241112,7.03,'11111222,11111222,11111222' 
TABS,ioos:station:wmo:42046:1,2003-02-02T10:09:00Z,27.8903,-94.0367,4.0,4.750421034,185.3147437,7.41,'11111222,11111222,11111222' 
TABS,ioos:station:wmo:42046:1,2003-02-02T10:39:00Z,27.8903,-94.0367,4.0,3.966925762,187.8239029,6.15,'11111222,11111222,11111222' 
TABS,ioos:station:wmo:42046:1,2003-02-02T11:09:00Z,27.8903,-94.0367,4.0,4.042932104,186.1056346,6.13,'11111222,11111222,11111222' 
TABS,ioos:station:wmo:42046:1,2003-02-02T11:39:00Z,27.8903,-94.0367,4.0,4.28463534,202.794892,6.95,'11111222,11111222,11111222' 
TABS,ioos:station:wmo:42046:1,2003-02-02T12:09:00Z,27.8903,-94.0367,4.0,4.099195043,190.5425652,6.44,'11111222,11111222,11111222' 
TABS,ioos:station:wmo:42046:1,2003-02-02T12:39:00Z,27.8903,-94.0367,4.0,4.44,198.9248106,7.35,'11111222,11111222,11111222' 
TABS,ioos:station:wmo:42046:1,2003-02-02T13:09:00Z,27.8903,-94.0367,4.0,4.61494312,197.1394109,6.87,'11111222,11111222,11111222' 
TABS,ioos:station:wmo:42046:1,2003-02-02T13:39:00Z,27.8903,-94.0367,4.0,4.690554338,199.5553872,7.3,'11111222,11111222,11111222' 
TABS,ioos:station:wmo:42046:1,2003-02-02T14:09:00Z,27.8903,-94.0367,4.0,5.057993673,195.2453584,7.15,'11111222,11111222,11111222' 
TABS,ioos:station:wmo:42046:1,2003-02-02T14:39:00Z,27.8903,-94.0367,4.0,4.537543388,189.8984473,7.17,'11111222,11111222,11111222' 
TABS,ioos:station:wmo:42046:1,2003-02-02T15:09:00Z,27.8903,-94.0367,4.0,5.426693284,186.6668548,8.38,'11111222,11111222,11111222' 
TABS,ioos:station:wmo:42046:1,2003-02-02T15:39:00Z,27.8903,-94.0367,4.0,5.53933209,192.4055796,8.69,'11111222,11111222,11111222' 
TABS,ioos:station:wmo:42046:1,2003-02-02T16:09:00Z,27.8903,-94.0367,4.0,5.375434866,188.2358105,7.67,'11111222,11111222,11111222' 
TABS,ioos:station:wmo:42046:1,2003-02-02T16:39:00Z,27.8903,-94.0367,4.0,4.997039123,191.3101165,7.91,'11111222,11111222,11111222' 
TABS,ioos:station:wmo:42046:1,2003-02-02T17:09:00Z,27.8903,-94.0367,4.0,5.00596644,189.3119805,7.53,'11111222,11111222,11111222' 
TABS,ioos:station:wmo:42046:1,2003-02-02T17:39:00Z,27.8903,-94.0367,4.0,5.108189503,187.8764942,7.8,'11111222,11111222,11111222' 
TABS,ioos:station:wmo:42046:1,2003-02-02T18:09:00Z,27.8903,-94.0367,4.0,5.644289149,191.0314046,8.15,'11111222,11111222,11111222' 
TABS,ioos:station:wmo:42046:1,2003-02-02T18:39:00Z,27.8903,-94.0367,4.0,5.640257086,192.8044466,8.58,'11111222,11111222,11111222' 
TABS,ioos:station:wmo:42046:1,2003-02-02T19:09:00Z,27.8903,-94.0367,4.0,5.488916104,194.6693565,8.01,'11111222,11111222,11111222' 
TABS,ioos:station:wmo:42046:1,2003-02-02T19:39:00Z,27.8903,-94.0367,4.0,4.767829695,195.6979663,7.08,'11111222,11111222,11111222' 
TABS,ioos:station:wmo:42046:1,2003-02-02T20:09:00Z,27.8903,-94.0367,4.0,4.261384751,194.2646894,6.07,'11111222,11111222,11111222' 
TABS,ioos:station:wmo:42046:1,2003-02-02T20:39:00Z,27.8903,-94.0367,4.0,4.478001787,200.6610349,7.74,'11111222,11111222,11111222' 
TABS,ioos:station:wmo:42046:1,2003-02-02T21:09:00Z,27.8903,-94.0367,4.0,4.502899066,189.5880211,6.63,'11111222,11111222,11111222' 
TABS,ioos:station:wmo:42046:1,2003-02-02T21:39:00Z,27.8903,-94.0367,4.0,5.390732789,183.6163159,8.34,'11111222,11111222,11111222' 
TABS,ioos:station:wmo:42046:1,2003-02-02T22:09:00Z,27.8903,-94.0367,4.0,4.893689814,182.2253023,8.07,'11111222,11111222,11111222' 
TABS,ioos:station:wmo:42046:1,2003-02-02T22:39:00Z,27.8903,-94.0367,4.0,5.244206327,182.2951819,8.03,'11111222,11111222,11111222' 
TABS,ioos:station:wmo:42046:1,2003-02-02T23:09:00Z,27.8903,-94.0367,4.0,5.309105386,184.8624256,8.1,'11111222,11111222,11111222' 
TABS,ioos:station:wmo:42046:1,2003-02-02T23:39:00Z,27.8903,-94.0367,4.0,5.58,180.0002105,8.4,'11111222,11111222,11111222' 
TABS,ioos:station:wmo:42046:1,2003-02-03T00:09:00Z,27.8903,-94.0367,4.0,5.583636808,175.9950233,8.12,'11111222,11111222,11111222' 
TABS,ioos:station:wmo:42046:1,2003-02-03T00:39:00Z,27.8903,-94.0367,4.0,5.836522938,169.0368464,8.94,'11111222,11111222,11111222' 
TABS,ioos:station:wmo:42046:1,2003-02-03T01:09:00Z,27.8903,-94.0367,4.0,5.848828943,174.3091256,8.9,'11111222,11111222,11111222' 
TABS,ioos:station:wmo:42046:1,2003-02-03T01:39:00Z,27.8903,-94.0367,4.0,5.56167241,170.7919538,8.29,'11111222,11111222,11111222' 
TABS,ioos:station:wmo:42046:1,2003-02-03T02:09:00Z,27.8903,-94.0367,4.0,6.356453414,168.1069379,9.02,'11111222,11111222,11111222' 
TABS,ioos:station:wmo:42046:1,2003-02-03T02:39:00Z,27.8903,-94.0367,4.0,7.538255766,169.838151,11.14,'11111222,11111222,11111222' 
TABS,ioos:station:wmo:42046:1,2003-02-03T03:09:00Z,27.8903,-94.0367,4.0,7.678463388,163.9728546,11.03,'11111222,11111222,11111222' 
TABS,ioos:station:wmo:42046:1,2003-02-03T03:39:00Z,27.8903,-94.0367,4.0,7.30836507,169.6743519,10.84,'11111222,11111222,11111222' 
TABS,ioos:station:wmo:42046:1,2003-02-03T04:09:00Z,27.8903,-94.0367,4.0,7.371472038,172.595628,11.03,'11111222,11111222,11111222' 
TABS,ioos:station:wmo:42046:1,2003-02-03T04:39:00Z,27.8903,-94.0367,4.0,7.584457792,173.7935118,11.24,'11111222,11111222,11111222' 
TABS,ioos:station:wmo:42046:1,2003-02-03T05:09:00Z,27.8903,-94.0367,4.0,7.962166791,176.8323626,11.37,'11111222,11111222,11111222' 
TABS,ioos:station:wmo:42046:1,2003-02-03T05:39:00Z,27.8903,-94.0367,4.0,6.97413077,178.0281123,10.85,'11111222,11111222,11111222' 
TABS,ioos:station:wmo:42046:1,2003-02-03T06:09:00Z,27.8903,-94.0367,4.0,7.460060321,179.7698003,11.59,'11111222,11111222,11111222' 
TABS,ioos:station:wmo:42046:1,2003-02-03T06:39:00Z,27.8903,-94.0367,4.0,7.231770184,178.732464,10.33,'11111222,11111222,11111222' 
TABS,ioos:station:wmo:42046:1,2003-02-03T07:09:00Z,27.8903,-94.0367,4.0,7.587179977,182.4930378,10.93,'11111222,11111222,11111222' 
TABS,ioos:station:wmo:42046:1,2003-02-03T07:39:00Z,27.8903,-94.0367,4.0,7.284620786,188.2081562,10.78,'11111222,11111222,11111222' 
TABS,ioos:station:wmo:42046:1,2003-02-03T08:09:00Z,27.8903,-94.0367,4.0,7.555957914,194.9560154,11.31,'11111222,11111222,11111222' 
TABS,ioos:station:wmo:42046:1,2003-02-03T08:39:00Z,27.8903,-94.0367,4.0,6.510453133,193.1399156,9.6,'11111222,11111222,11111222' 
TABS,ioos:station:wmo:42046:1,2003-02-03T09:09:00Z,27.8903,-94.0367,4.0,6.758912634,197.3895934,9.91,'11111222,11111222,11111222' 
TABS,ioos:station:wmo:42046:1,2003-02-03T09:39:00Z,27.8903,-94.0367,4.0,6.829846265,194.2398849,10.51,'11111222,11111222,11111222' 
TABS,ioos:station:wmo:42046:1,2003-02-03T10:09:00Z,27.8903,-94.0367,4.0,6.708777832,195.6522893,10.18,'11111222,11111222,11111222' 
TABS,ioos:station:wmo:42046:1,2003-02-03T10:39:00Z,27.8903,-94.0367,4.0,6.916487548,195.3424793,10.99,'11111222,11111222,11111222' 
TABS,ioos:station:wmo:42046:1,2003-02-03T11:09:00Z,27.8903,-94.0367,4.0,7.248737821,197.5852431,11.15,'11111222,11111222,11111222' 
TABS,ioos:station:wmo:42046:1,2003-02-03T11:39:00Z,27.8903,-94.0367,4.0,6.783877947,202.4446083,10.2,'11111222,11111222,11111222' 
TABS,ioos:station:wmo:42046:1,2003-02-03T12:09:00Z,27.8903,-94.0367,4.0,5.683000968,199.1046508,10.59,'11111222,11111222,11111222' 
TABS,ioos:station:wmo:42046:1,2003-02-03T12:39:00Z,27.8903,-94.0367,4.0,5.38198848,193.6491198,9.08,'11111222,11111222,11111222' 
TABS,ioos:station:wmo:42046:1,2003-02-03T13:09:00Z,27.8903,-94.0367,4.0,6.508648093,185.3779344,10.02,'11111222,11111222,11111222' 
TABS,ioos:station:wmo:42046:1,2003-02-03T13:39:00Z,27.8903,-94.0367,4.0,6.921018711,191.5861206,11.74,'11111222,11111222,11111222' 
TABS,ioos:station:wmo:42046:1,2003-02-03T14:09:00Z,27.8903,-94.0367,4.0,6.824206914,198.5413174,11.52,'11111222,11111222,11111222' 
TABS,ioos:station:wmo:42046:1,2003-02-03T14:39:00Z,27.8903,-94.0367,4.0,6.397726159,187.0030211,9.72,'11111222,11111222,11111222' 
TABS,ioos:station:wmo:42046:1,2003-02-03T15:09:00Z,27.8903,-94.0367,4.0,7.7507419,163.201878,11.74,'11111222,11111222,11111222' 
TABS,ioos:station:wmo:42046:1,2003-02-03T15:39:00Z,27.8903,-94.0367,4.0,8.38676338,176.3770081,12.91,'11111222,11111222,11111222' 
TABS,ioos:station:wmo:42046:1,2003-02-03T16:09:00Z,27.8903,-94.0367,4.0,9.980390774,166.1450061,14.98,'11111222,11111222,11111222' 
TABS,ioos:station:wmo:42046:1,2003-02-03T16:39:00Z,27.8903,-94.0367,4.0,11.14070913,162.9315518,15.73,'11111222,11111222,11111222' 
TABS,ioos:station:wmo:42046:1,2003-02-03T17:09:00Z,27.8903,-94.0367,4.0,9.581883948,172.5043703,13.89,'11111222,11111222,11111222' 
TABS,ioos:station:wmo:42046:1,2003-02-03T17:39:00Z,27.8903,-94.0367,4.0,8.265071083,188.6989177,13.51,'11111222,11111222,11111222' 
TABS,ioos:station:wmo:42046:1,2003-02-03T18:09:00Z,27.8903,-94.0367,4.0,7.235696235,210.5700696,11.25,'11111222,11111222,11111222' 
TABS,ioos:station:wmo:42046:1,2003-02-03T18:39:00Z,27.8903,-94.0367,4.0,7.649758166,218.0984536,12.38,'11111222,11111222,11111222' 
TABS,ioos:station:wmo:42046:1,2003-02-03T19:09:00Z,27.8903,-94.0367,4.0,5.566075817,231.5653481,9.39,'11111222,11111222,11111222' 
TABS,ioos:station:wmo:42046:1,2003-02-03T19:39:00Z,27.8903,-94.0367,4.0,4.134464899,232.2709569,6.95,'11111222,11111222,11111222' 
TABS,ioos:station:wmo:42046:1,2003-02-03T20:09:00Z,27.8903,-94.0367,4.0,3.792373927,243.3674454,7.49,'11111222,11111222,11111222' 
TABS,ioos:station:wmo:42046:1,2003-02-03T20:39:00Z,27.8903,-94.0367,4.0,3.871808363,236.2689685,6.94,'11111222,11111222,11111222' 
TABS,ioos:station:wmo:42046:1,2003-02-03T21:09:00Z,27.8903,-94.0367,4.0,4.086673464,228.2734134,6.89,'11111222,11111222,11111222' 
TABS,ioos:station:wmo:42046:1,2003-02-03T21:39:00Z,27.8903,-94.0367,4.0,5.256320005,217.5022541,9.15,'11111222,11111222,11111222' 
TABS,ioos:station:wmo:42046:1,2003-02-03T22:09:00Z,27.8903,-94.0367,4.0,4.624078287,212.7279153,8.51,'11111222,11111222,11111222' 
TABS,ioos:station:wmo:42046:1,2003-02-03T22:39:00Z,27.8903,-94.0367,4.0,3.370534082,217.8900146,6.11,'11111222,11111222,11111222' 
TABS,ioos:station:wmo:42046:1,2003-02-03T23:09:00Z,27.8903,-94.0367,4.0,2.938741227,215.583134,6.68,'11111222,11111222,11111222' 
TABS,ioos:station:wmo:42046:1,2003-02-03T23:39:00Z,27.8903,-94.0367,4.0,3.25419729,204.1235356,6.14,'11111222,11111222,11111222' 
TABS,ioos:station:wmo:42046:1,2003-02-04T00:09:00Z,27.8903,-94.0367,4.0,3.086502875,205.3198382,6.44,'11111222,11111222,11111222' 
TABS,ioos:station:wmo:42046:1,2003-02-04T00:39:00Z,27.8903,-94.0367,4.0,2.333238093,218.7366293,4.93,'11111222,11111222,11111222' 
TABS,ioos:station:wmo:42046:1,2003-02-04T01:09:00Z,27.8903,-94.0367,4.0,2.271057023,248.2923383,4.67,'11111222,11111222,11111222' 
TABS,ioos:station:wmo:42046:1,2003-02-04T01:39:00Z,27.8903,-94.0367,4.0,1.059056184,259.1144984,3.67,'11111222,11111222,11111222' 
TABS,ioos:station:wmo:42046:1,2003-02-04T02:09:00Z,27.8903,-94.0367,4.0,1.700029412,269.6629707,5.58,'11111222,11111222,11111222' 
TABS,ioos:station:wmo:42046:1,2003-02-04T02:39:00Z,27.8903,-94.0367,4.0,1.141271221,261.9409149,4.22,'11111222,11111222,11111222' 
TABS,ioos:station:wmo:42046:1,2003-02-04T03:09:00Z,27.8903,-94.0367,4.0,0.410487515,214.0773261,3.02,'11111222,11111222,11111222' 
TABS,ioos:station:wmo:42046:1,2003-02-04T03:39:00Z,27.8903,-94.0367,4.0,1.815957048,242.4472529,5.21,'11111222,11111222,11111222' 
TABS,ioos:station:wmo:42046:1,2003-02-04T04:09:00Z,27.8903,-94.0367,4.0,1.301883251,266.9178264,4.19,'11111222,11111222,11111222' 
TABS,ioos:station:wmo:42046:1,2003-02-04T04:39:00Z,27.8903,-94.0367,4.0,1.161808934,318.4892115,3.85,'11111222,11111222,11111222' 
TABS,ioos:station:wmo:42046:1,2003-02-04T05:09:00Z,27.8903,-94.0367,4.0,2.254994457,303.0557455,5.6,'11111222,11111222,11111222' 
TABS,ioos:station:wmo:42046:1,2003-02-04T05:39:00Z,27.8903,-94.0367,4.0,10.76267625,358.7220316,15.98,'11111222,11111222,11111222' 
TABS,ioos:station:wmo:42046:1,2003-02-04T06:09:00Z,27.8903,-94.0367,4.0,10.43072385,4.39848461,14.66,'11111222,11111222,11111222' 
TABS,ioos:station:wmo:42046:1,2003-02-04T06:39:00Z,27.8903,-94.0367,4.0,11.07345023,5.077094934,17.0,'11111222,11111222,11111222' 
TABS,ioos:station:wmo:42046:1,2003-02-04T07:09:00Z,27.8903,-94.0367,4.0,10.46030592,359.5615905,15.51,'11111222,11144222,11111222' 
TABS,ioos:station:wmo:42046:1,2003-02-04T07:39:00Z,27.8903,-94.0367,4.0,11.13330589,3.707733512,15.74,'11111222,11111222,11111222' 
TABS,ioos:station:wmo:42046:1,2003-02-04T08:09:00Z,27.8903,-94.0367,4.0,10.11577975,11.57628835,14.56,'11111222,11111222,11111222' 
TABS,ioos:station:wmo:42046:1,2003-02-04T08:39:00Z,27.8903,-94.0367,4.0,10.24724841,10.96976367,16.13,'11111222,11111222,11111222' 
TABS,ioos:station:wmo:42046:1,2003-02-04T09:09:00Z,27.8903,-94.0367,4.0,10.77530974,7.626039139,17.69,'11111222,11111222,11111222' 
TABS,ioos:station:wmo:42046:1,2003-02-04T09:39:00Z,27.8903,-94.0367,4.0,10.42902201,17.06208681,15.64,'11111222,11111222,11111222' 
TABS,ioos:station:wmo:42046:1,2003-02-04T10:09:00Z,27.8903,-94.0367,4.0,10.49572294,15.98264039,16.47,'11111222,11111222,11111222' 
TABS,ioos:station:wmo:42046:1,2003-02-04T10:39:00Z,27.8903,-94.0367,4.0,10.30664349,10.62283491,16.8,'11111222,11111222,11111222' 
TABS,ioos:station:wmo:42046:1,2003-02-04T11:09:00Z,27.8903,-94.0367,4.0,10.21655519,17.1931883,15.36,'11111222,11111222,11111222' 
TABS,ioos:station:wmo:42046:1,2003-02-04T11:39:00Z,27.8903,-94.0367,4.0,9.699572156,19.20058425,15.34,'11111222,11111222,11111222' 
TABS,ioos:station:wmo:42046:1,2003-02-04T12:09:00Z,27.8903,-94.0367,4.0,9.632652802,23.10460346,15.34,'11111222,11111222,11111222' 
TABS,ioos:station:wmo:42046:1,2003-02-04T12:39:00Z,27.8903,-94.0367,4.0,9.61904881,21.65735619,14.67,'11111222,11111222,11111222' 
TABS,ioos:station:wmo:42046:1,2003-02-04T13:09:00Z,27.8903,-94.0367,4.0,9.090500536,19.67052654,13.82,'11111222,11111222,11111222' 
TABS,ioos:station:wmo:42046:1,2003-02-04T13:39:00Z,27.8903,-94.0367,4.0,9.089603952,24.36543585,14.49,'11111222,11111222,11111222' 
TABS,ioos:station:wmo:42046:1,2003-02-04T14:09:00Z,27.8903,-94.0367,4.0,9.745327085,27.1695289,14.92,'11111222,11111222,11111222' 
TABS,ioos:station:wmo:42046:1,2003-02-04T14:39:00Z,27.8903,-94.0367,4.0,8.815741602,27.49491538,14.6,'11111222,11111222,11111222' 
TABS,ioos:station:wmo:42046:1,2003-02-04T15:09:00Z,27.8903,-94.0367,4.0,8.267992501,33.30537851,13.85,'11111222,11111222,11111222' 
TABS,ioos:station:wmo:42046:1,2003-02-04T15:39:00Z,27.8903,-94.0367,4.0,8.439348316,27.14166279,12.88,'11111222,11111222,11111222' 
TABS,ioos:station:wmo:42046:1,2003-02-04T16:09:00Z,27.8903,-94.0367,4.0,7.866670198,26.17391045,12.5,'11111222,11111222,11111222' 
TABS,ioos:station:wmo:42046:1,2003-02-04T16:39:00Z,27.8903,-94.0367,4.0,7.95,36.86960097,12.54,'11111222,11111222,11111222' 
TABS,ioos:station:wmo:42046:1,2003-02-04T17:09:00Z,27.8903,-94.0367,4.0,7.128990111,42.21391075,12.12,'11111222,11111222,11111222' 
TABS,ioos:station:wmo:42046:1,2003-02-04T17:39:00Z,27.8903,-94.0367,4.0,7.323011676,38.51287778,11.85,'11111222,11111222,11111222' 
TABS,ioos:station:wmo:42046:1,2003-02-04T18:09:00Z,27.8903,-94.0367,4.0,7.576707728,43.23483064,11.9,'11111222,11111222,11111222' 
TABS,ioos:station:wmo:42046:1,2003-02-04T18:39:00Z,27.8903,-94.0367,4.0,7.647123642,41.129232,12.23,'11111222,11111222,11111222' 
TABS,ioos:station:wmo:42046:1,2003-02-04T19:09:00Z,27.8903,-94.0367,4.0,8.020953809,42.22052395,12.67,'11111222,11111222,11111222' 
TABS,ioos:station:wmo:42046:1,2003-02-04T19:39:00Z,27.8903,-94.0367,4.0,7.65104568,42.51013721,13.71,'11111222,11111222,11111222' 